Location: Recife
(8.0585°S, 34.8848°W)
Time: 10:34:02
(UTC-03:00)

Explorer 11/Cluster Stage 4 - Pass Details

Date: 19 April 2026
Orbit: 463 x 1174 km, 28.8° (Epoch: 19 May)

Event Time Altitude Azimuth Distance (km) Brightness Sun altitude
Rises 19:49:36 0° 269° (W) 3,536 10.8 -38.5°
Reaches altitude 10° 19:53:04 10° 253° (WSW) 2,447 9.7 -39.3°
Enters shadow 19:54:52 16° 238° (WSW) 1,990 9.0 -39.7°
